sat.trackr.live / text

‹ back to catalog

STARLINK-1470

NORAD 45772 · 2020-038AU

PAYLOAD ACTIVE UNKNOWN

§ Identity

Operator
Country
US
Launch date
2020-06-13
Launch site
AFETR
Launch vehicle
Mass (kg)
RCS (m²)

Purposes: comms

External: N2YO · Heavens-Above · Gunter

§ Orbital elements

Epoch: 2026-05-24T09:17:58.573536Z

Period
93.87 min
Inclination
53.0424°
Eccentricity
0.0003774
Mean motion
15.34026764 rev/d
Perigee alt
461.2 km
Apogee alt
466.4 km
Semi-major
6,841.9 km
B*
9.6894e-4
RAAN
181.2177°
Arg perigee
349.9588°
Mean anomaly
10.1336°
Rev number
32,867

§ Raw data

STARLINK-14701 45772U 20038AU  26144.38748349  .00032123  00000+0  96894-3 0  99902 45772  53.0424 181.2177 0003774 349.9588  10.1336 15.34026764328677

JSON: /api/v1/satellites/45772 · /tle

For live sub-satellite position, see the globe view (requires WebGL).

§ Visibility from observer

Set your observer location to see the next 7 days of passes ≥ 10°. The values pass through the URL so the page stays shareable.

No JS? Fill the form by hand. The geolocation button needs JavaScript.